Regional Weather Roundup
Issued by NWS

Home | Current Version | Previous Version | Graphics & Text | Print | Product List | Glossary On
Versions: 1 2 3 4 5 6 7 8 9 10 11 12 13 14 15 16 17 18 19 20 21 22 23 24 25 26 27 28 29 30 31 32 33 34 35 36 37 38 39 40 41 42 43 44 45 46 47 48 49 50
000
ASUS45 KSLC 041310
RWRUT

UTAH REGIONAL WEATHER ROUNDUP
NATIONAL WEATHER SERVICE SALT LAKE CITY UT
700 AM MDT SAT JUL 04 2015

UTZ001>011-023>025-041400-

NORTHERN UTAH

CITY           SKY/WX    TMP DP  RH WIND       PRES   REMARKS
BRIGHAM CITY   PTCLDY    74  51  44 CALM      29.94R
HILL AFB       CLOUDY    73  47  39 E14       29.98R
LOGAN          PTCLDY    70  53  54 W7        29.96R
OGDEN          MOCLDY    76  47  35 CALM      29.95R
PROVO AIRPORT  MOCLDY    72  48  43 SE6       29.98R
SALT LAKE CITY CLOUDY    83  49  30 E6        29.92R
VERNAL         PTSUNNY   68  47  46 SW3       30.06R
WENDOVER       PTCLDY    81  45  28 CALM      29.95R
HEBER CITY     CLOUDY    61  48  63 SW3       30.08R
WEST JORDAN    PTCLDY    77  46  33 CALM      29.96S

$$

UTZ012>022-026-027-041400-

SOUTHERN/CENTRAL UTAH

CITY           SKY/WX    TMP DP  RH WIND       PRES   REMARKS
BLANDING       MOCLDY    65  52  62 S3        30.23S
BRYCE CANYON   MOCLDY    57  50  77 CALM      30.27S
CEDAR CITY     CLOUDY    73  48  41 SW7       30.09R
DELTA          PTCLDY    78  42  28 S10       29.98R
HANKSVILLE     PTCLDY    73  50  43 NE5       30.03R
MILFORD        CLOUDY    75  49  39 SW12      30.02R
MOAB/CYNLANDS  CLEAR     74  54  49 CALM      30.04R
PRICE          CLEAR     73  46  38 E10       30.12R
ST GEORGE      CLOUDY    84  54  34 E10       29.92R
KANAB          CLOUDY    70  61  73 NW5       30.13S

$$

REGIONAL REPORTS     COLORADO/ARIZONA

CITY           SKY/WX    TMP DP  RH WIND       PRES   REMARKS
CRAIG, CO      MOSUNNY   59  47  64 CALM      30.15R
GRAND JUNCTION PTSUNNY   75  49  39 SE15      30.07R
RIFLE          PTSUNNY   62  54  74 E3        30.14R
MONTROSE       CLOUDY    68  51  54 S16       30.20R
CORTEZ         SUNNY     58  50  75 CALM      30.20R
PAGE, AZ       MOCLDY    77  57  50 CALM      30.02R
GRAND CANYON   CLOUDY    59  57  93 NE5       30.19S
KINGMAN        CLOUDY    80  53  39 SE7       29.95R
FLAGSTAFF      CLOUDY    57  57 100 NE5       30.24R

$$

REGIONAL REPORTS    NEVADA/IDAHO/WYOMING

CITY           SKY/WX    TMP DP  RH WIND       PRES   REMARKS
LAS VEGAS, NV  CLOUDY    94  35  12 SW10      29.78R
ELY            CLOUDY    59  48  67 S10       30.12S
ELKO           PTCLDY    62  49  62 NE5       30.05R
POCATELLO, ID  CLEAR     67  47  48 S8        29.97R
BURLEY         PTCLDY    65  51  60 CALM      29.93R
EVANSTON, WY   MOCLDY    62  42  47 S6        30.18R
ROCK SPRINGS   SUNNY     64  43  46 S6        30.13S
KEMMERER       MOSUNNY   61  43  51 NW6       30.18S

$$


USA.gov is the U.S. government's official web portal to all federal, state and local government web resources and services.